Wind_Speed
70 69 75 69 65 63 66 70 74 74 75 76 76 78 85 89 91 90 97 95 97 101 96 95 96 98 100 106 109 107 112 110 109 105 103 101 100 100 97 95 95 94 95 95
69 71 71 68 68 66 67 72 73 70 71 73 76 80 87 86 84 88 100 101 101 100 104 100 99 97 96 97 100 106 110 108 108 110 108 106 107 102 100 98 99 102 104 100
66 70 65 66 67 68 69 73 69 65 66 68 72 79 75 73 75 82 95 99 103 101 104 105 104 102 100 97 97 98 99 104 108 110 111 108 109 110 109 108 108 108 108 106
63 64 61 63 66 66 67 67 59 58 59 60 66 70 69 65 58 69 83 94 102 100 101 101 102 104 103 101 100 99 97 97 98 104 109 110 111 111 111 108 108 108 109 109
56 61 58 59 65 63 66 56 53 52 51 53 55 58 57 56 51 63 74 84 96 101 99 100 102 107 104 103 103 99 98 100 100 102 102 104 103 103 106 109 110 110 107 110
53 56 52 58 58 60 60 50 50 48 45 46 46 46 40 40 35 45 58 74 87 99 109 107 110 110 102 105 103 101 100 100 102 102 101 100 100 100 99 101 102 103 102 104
52 53 56 53 54 55 53 48 48 44 40 43 42 36 31 28 23 25 40 54 69 81 93 108 110 112 109 106 104 104 105 93 99 107 104 101 101 100 98 95 94 96 100 102
44 54 54 53 51 54 50 47 46 44 38 34 32 28 29 25 24 22 22 28 42 59 73 86 101 102 104 103 108 106 99 104 107 108 106 107 104 101 98 97 96 99 100 102
42 50 55 52 52 53 50 45 47 42 40 35 29 26 28 27 24 22 21 23 24 29 39 65 77 88 93 92 100 102 106 102 102 101 106 109 108 107 102 100 102 103 102 101
40 42 53 54 54 53 50 46 43 42 39 35 31 26 28 26 22 20 19 20 23 26 31 36 47 62 75 83 87 95 98 101 105 107 108 107 105 109 103 103 102 101 102 98
40 38 49 55 52 51 48 46 43 42 39 36 35 31 28 26 25 21 19 21 23 25 28 32 36 43 52 64 75 84 93 99 101 102 104 103 104 101 98 96 93 93 93 95
39 39 43 54 54 51 48 48 45 42 42 39 37 37 38 32 29 25 20 17 18 22 24 28 32 36 40 45 52 58 65 71 75 81 82 81 81 82 81 79 83 86 89 90
40 41 40 52 54 54 50 48 47 46 43 42 40 42 40 37 32 31 28 23 24 25 25 26 29 33 38 41 44 49 53 57 60 64 68 71 72 73 74 77 80 81 82 85
41 42 40 44 56 56 52 50 50 48 47 48 45 45 43 41 38 36 35 34 32 32 34 35 35 34 34 36 39 41 44 48 52 57 60 62 64 66 66 69 71 72 76 79
41 40 40 40 52 53 54 54 50 50 51 49 49 47 46 46 46 44 42 43 42 43 41 40 40 41 42 43 44 45 48 50 51 53 55 57 58 60 63 67 70 75 78 80
41 40 42 37 42 52 53 51 56 53 49 48 50 52 53 48 47 48 49 47 45 44 43 42 41 42 43 44 45 47 50 53 54 56 58 61 63 68 70 72 74 78 82 84
42 40 41 38 36 41 49 57 52 54 56 56 56 59 56 55 52 51 50 50 50 51 50 49 49 50 50 50 53 56 58 59 60 62 63 61 64 68 71 73 77 78 78 79
42 40 38 41 38 37 42 51 59 57 55 54 56 57 56 57 56 55 53 53 53 54 53 53 53 55 55 54 54 57 59 60 63 59 55 55 58 63 67 70 69 69 65 64
46 44 43 42 42 40 44 46 46 49 54 55 54 53 54 54 55 56 57 57 57 57 57 57 57 56 56 55 56 58 59 59 54 50 45 44 45 47 49 52 53 55 59 65
46 44 43 44 42 41 39 42 49 53 51 50 52 53 55 56 57 58 59 59 60 61 61 61 59 56 55 55 56 58 54 49 42 39 33 31 32 37 41 46 50 55 62 68
42 43 42 44 43 41 37 36 37 41 47 53 56 55 56 56 57 57 58 59 59 59 59 58 56 56 57 58 56 50 45 37 34 29 26 27 29 36 41 46 51 57 66 73
40 40 44 44 45 45 41 41 38 36 39 42 45 48 52 55 56 57 57 58 59 60 59 58 57 58 59 57 50 40 31 28 26 23 22 26 32 37 43 49 54 63 68 73
42 42 43 44 42 41 38 37 38 36 37 38 38 39 40 42 43 44 43 42 43 43 41 40 40 40 37 35 31 26 26 26 23 20 23 29 33 39 44 52 56 61 68 75
42 42 41 43 42 40 38 37 36 36 34 33 31 32 34 34 33 33 33 31 30 30 28 27 26 26 27 25 24 27 26 22 18 19 25 29 35 40 47 51 53 62 69 71
42 40 39 39 38 37 36 33 33 32 30 27 27 28 29 28 26 25 23 22 21 21 20 20 21 22 23 24 27 25 20 15 15 21 25 31 36 41 52 52 55 62 69 63
41 38 35 35 34 33 32 31 30 28 27 25 26 26 23 20 19 18 17 17 18 17 18 19 21 23 26 28 25 20 16 16 18 22 26 32 39 43 53 52 59 62 68 55
Wind_Direction
238 239 238 237 238 239 243 248 250 252 254 255 257 257 258 259 258 256 253 250 246 244 243 243 246 244 244 244 245 246 248 248 250 252 253 255 256 258 264 264 266 266 268 269
238 240 239 238 239 240 244 250 254 256 259 261 263 264 265 265 256 249 243 243 242 239 238 238 240 244 246 244 245 247 248 248 249 249 251 256 258 258 260 263 265 267 270 274
234 237 239 238 239 240 244 250 255 259 262 265 269 273 274 269 258 244 237 237 237 236 236 234 237 238 242 245 247 247 248 250 251 251 252 252 255 258 260 262 264 265 267 270
234 233 235 238 239 239 243 249 255 258 263 269 275 280 279 272 256 243 234 232 231 233 235 235 234 236 237 242 244 247 249 252 254 254 252 252 254 257 259 261 262 265 268 270
233 232 230 235 236 237 243 248 251 256 266 272 279 283 278 267 253 240 229 229 229 230 231 232 233 235 235 237 240 243 247 249 250 254 255 257 257 257 259 261 263 266 268 270
232 229 226 230 234 236 242 246 246 253 262 271 280 284 267 253 247 233 228 226 226 228 229 229 232 236 236 238 239 241 241 246 249 253 256 258 259 259 259 262 265 266 268 269
233 228 227 230 232 236 241 242 244 249 257 268 280 286 276 259 240 239 231 229 227 226 228 231 232 234 234 238 239 239 240 237 244 251 255 256 259 261 263 266 268 269 269 270
239 228 227 227 228 233 238 239 240 246 251 267 278 279 278 272 266 251 242 241 238 232 231 229 232 235 236 237 239 240 240 243 244 249 253 255 257 260 263 265 267 269 271 272
237 233 228 228 229 231 234 237 239 244 249 255 266 272 271 273 269 265 259 249 242 241 240 235 233 236 236 238 241 238 238 241 242 248 252 257 259 262 263 265 267 269 273 276
235 237 228 227 229 231 233 236 239 242 248 252 249 259 256 268 271 264 262 259 253 243 237 236 235 237 239 239 241 243 243 247 249 249 252 256 258 262 265 267 269 270 271 274
233 240 229 226 227 229 231 233 235 240 243 247 245 253 260 260 261 261 256 252 252 251 251 249 243 237 238 240 243 244 247 249 251 253 255 257 259 263 264 265 268 270 270 270
231 238 235 226 226 226 227 231 233 235 237 240 244 243 247 245 249 251 251 250 248 249 249 248 247 247 247 246 245 245 247 249 251 253 256 258 260 261 262 262 261 263 265 268
233 234 239 228 226 227 224 226 232 236 238 238 238 240 241 244 244 247 252 249 247 248 250 249 250 251 252 255 256 258 259 260 262 264 264 264 264 264 265 266 266 268 270 271
233 235 241 234 229 224 225 227 227 230 236 238 239 241 244 245 243 245 244 244 241 249 257 256 253 254 253 253 255 257 259 260 260 262 264 265 266 267 267 266 267 268 268 269
235 234 238 241 234 228 226 227 229 230 231 232 239 244 243 243 245 247 247 249 251 254 257 254 253 253 254 255 256 258 260 262 265 267 268 267 266 265 264 266 267 267 269 272
233 239 237 239 237 233 230 232 233 232 232 235 237 242 244 247 248 248 250 251 253 254 254 253 251 252 253 256 260 262 264 266 267 269 270 268 265 264 265 267 269 271 274 279
231 236 241 244 243 233 233 234 234 235 236 238 242 246 251 253 253 251 252 252 254 255 255 254 254 255 258 259 261 265 268 271 274 276 274 268 264 263 265 268 271 276 278 280
231 232 238 242 248 249 243 238 236 237 238 240 244 247 249 252 254 252 251 253 254 255 255 256 257 258 259 263 266 268 271 276 279 277 271 266 262 263 266 270 274 276 281 282
225 225 227 234 240 244 247 250 247 242 240 241 242 245 248 251 252 254 254 254 254 254 255 257 258 259 260 263 266 269 275 278 278 274 270 265 264 266 268 270 278 283 284 287
228 236 238 239 241 246 249 250 250 251 252 250 248 249 251 253 255 257 260 261 260 258 258 260 259 260 262 264 266 271 274 277 271 268 259 259 263 266 274 280 285 290 292 295
226 227 234 237 239 244 253 258 260 257 253 253 253 253 254 256 257 259 260 261 261 261 261 262 262 261 261 263 266 269 273 265 262 250 252 258 268 277 285 294 298 301 302 299
225 230 232 238 240 244 251 257 264 268 262 258 257 256 256 258 260 261 262 262 262 262 261 261 261 260 259 260 262 262 255 248 239 242 253 269 278 290 300 302 307 306 304 304
227 233 234 239 244 246 251 257 263 269 264 262 261 261 262 263 264 265 265 263 261 258 256 253 251 249 249 246 243 236 228 228 231 245 268 282 293 300 305 311 310 313 313 308
227 232 234 238 243 247 251 259 265 269 262 262 260 259 261 264 265 266 263 261 257 253 248 243 236 229 228 224 220 214 219 221 238 264 278 291 301 306 314 312 319 320 317 317
225 230 234 238 242 246 251 260 266 261 260 263 262 263 265 268 263 256 251 247 245 239 231 222 214 210 210 206 205 208 208 229 253 269 285 297 304 308 319 321 326 325 320 327
224 229 236 239 241 249 255 265 267 260 257 263 262 263 257 250 240 234 234 230 227 221 215 210 204 201 195 199 198 197 216 237 258 277 290 300 306 313 323 332 333 330 326 332
Height
10626 10633 10634 10647 10654 10661 10662 10659 10657 10663 10668 10674 10678 10680 10673 10674 10682 10693 10688 10698 10700 10713 10728 10735 10733 10745 10755 10760 10766 10773 10777 10787 10792 10797 10802 10804 10806 10811 10815 10819 10821 10823 10826 10829
10609 10610 10619 10634 10640 10644 10645 10642 10643 10651 10652 10654 10655 10655 10648 10646 10648 10659 10653 10667 10672 10690 10697 10713 10715 10721 10730 10740 10745 10751 10757 10764 10770 10778 10784 10788 10790 10795 10798 10803 10804 10805 10807 10812
10590 10595 10610 10618 10623 10626 10628 10626 10633 10637 10637 10637 10634 10630 10622 10616 10616 10621 10623 10638 10647 10665 10673 10686 10694 10703 10708 10718 10724 10731 10736 10744 10751 10760 10766 10772 10773 10778 10781 10785 10787 10790 10791 10794
10575 10583 10595 10600 10605 10610 10610 10614 10623 10623 10621 10622 10618 10611 10600 10590 10590 10594 10601 10613 10625 10642 10653 10667 10676 10684 10693 10701 10706 10713 10722 10730 10735 10739 10743 10750 10755 10760 10763 10766 10768 10769 10773 10776
10558 10569 10581 10585 10586 10596 10595 10606 10610 10610 10608 10606 10606 10597 10586 10575 10574 10578 10582 10595 10608 10623 10634 10645 10655 10660 10670 10680 10690 10702 10708 10710 10713 10718 10722 10726 10736 10743 10746 10748 10753 10755 10756 10757
10544 10554 10564 10565 10576 10582 10586 10594 10598 10599 10598 10594 10596 10587 10579 10570 10565 10567 10571 10576 10584 10600 10611 10625 10632 10637 10655 10665 10677 10686 10690 10693 10696 10701 10705 10711 10718 10724 10729 10732 10735 10737 10737 10738
10533 10542 10547 10556 10565 10570 10574 10581 10586 10590 10589 10585 10587 10579 10574 10566 10562 10562 10564 10567 10574 10582 10593 10607 10618 10627 10639 10650 10660 10666 10671 10678 10681 10683 10690 10694 10699 10704 10709 10714 10716 10717 10717 10717
10522 10529 10534 10543 10551 10556 10562 10568 10575 10579 10581 10580 10580 10573 10565 10564 10563 10562 10563 10565 10570 10576 10584 10594 10604 10616 10626 10636 10643 10650 10655 10658 10665 10668 10672 10676 10681 10688 10693 10696 10698 10697 10697 10696
10509 10516 10522 10531 10538 10543 10550 10557 10562 10569 10573 10574 10574 10568 10561 10559 10559 10561 10563 10566 10569 10573 10578 10584 10592 10602 10612 10620 10627 10636 10640 10646 10648 10651 10655 10660 10665 10671 10678 10680 10679 10679 10679 10679
10499 10504 10509 10517 10525 10533 10540 10546 10554 10560 10564 10566 10566 10563 10558 10555 10556 10558 10560 10563 10566 10569 10571 10576 10582 10589 10596 10603 10610 10619 10625 10628 10634 10639 10641 10645 10651 10655 10660 10662 10661 10661 10658 10656
10486 10491 10497 10505 10513 10521 10530 10537 10543 10548 10554 10555 10557 10557 10554 10554 10553 10554 10556 10559 10562 10566 10569 10573 10576 10581 10586 10592 10600 10607 10611 10615 10620 10624 10625 10629 10634 10639 10641 10642 10642 10639 10638 10634
10475 10480 10485 10493 10501 10510 10518 10525 10532 10537 10541 10544 10547 10549 10546 10548 10549 10550 10552 10555 10558 10561 10565 10568 10571 10573 10576 10580 10585 10589 10593 10599 10603 10604 10608 10612 10613 10615 10617 10620 10618 10616 10614 10612
10463 10469 10473 10481 10490 10498 10507 10514 10520 10526 10530 10533 10537 10536 10538 10541 10545 10547 10549 10552 10554 10556 10559 10562 10565 10569 10572 10576 10579 10582 10585 10588 10591 10593 10594 10595 10597 10599 10600 10599 10597 10596 10595 10591
10451 10457 10463 10471 10476 10486 10496 10502 10506 10513 10518 10521 10526 10527 10530 10534 10537 10539 10541 10544 10547 10549 10553 10557 10560 10563 10566 10568 10570 10573 10576 10577 10578 10579 10581 10583 10583 10583 10582 10580 10579 10578 10575 10573
10442 10449 10453 10458 10466 10477 10484 10490 10496 10500 10505 10511 10512 10516 10520 10523 10527 10530 10534 10536 10538 10542 10545 10548 10551 10553 10556 10558 10560 10562 10564 10565 10567 10568 10569 10570 10569 10568 10567 10565 10563 10560 10557 10553
10431 10437 10443 10451 10457 10464 10472 10478 10481 10489 10497 10501 10502 10502 10503 10513 10517 10521 10523 10526 10529 10531 10534 10537 10540 10543 10546 10549 10551 10552 10552 10553 10555 10555 10555 10554 10554 10552 10550 10548 10545 10542 10537 10533
10422 10428 10433 10441 10446 10453 10460 10461 10472 10477 10481 10486 10490 10488 10496 10498 10504 10510 10512 10514 10517 10520 10522 10525 10528 10532 10534 10537 10538 10538 10538 10539 10540 10539 10536 10535 10534 10532 10532 10531 10527 10523 10518 10512
10413 10420 10426 10430 10436 10443 10445 10450 10459 10465 10470 10474 10476 10479 10485 10487 10490 10495 10500 10502 10504 10505 10508 10512 10515 10518 10521 10524 10525 10523 10523 10524 10523 10519 10517 10517 10516 10517 10517 10515 10511 10505 10502 10495
10402 10408 10414 10421 10426 10432 10437 10440 10445 10450 10455 10462 10465 10468 10471 10473 10477 10480 10483 10487 10491 10493 10495 10498 10501 10504 10508 10511 10511 10510 10511 10510 10506 10503 10502 10503 10504 10504 10504 10500 10497 10494 10488 10477
10394 10401 10408 10412 10417 10422 10428 10431 10434 10438 10442 10448 10451 10455 10457 10460 10463 10466 10469 10472 10475 10477 10480 10482 10486 10491 10494 10496 10496 10497 10497 10495 10492 10492 10492 10494 10495 10494 10493 10490 10486 10478 10469 10458
10387 10392 10398 10403 10406 10413 10419 10422 10424 10426 10430 10432 10436 10440 10443 10446 10449 10452 10453 10456 10458 10460 10462 10465 10469 10474 10477 10479 10481 10484 10484 10482 10483 10484 10485 10487 10488 10486 10483 10476 10470 10462 10450 10435
10379 10384 10388 10393 10398 10405 10409 10412 10415 10416 10418 10420 10422 10425 10428 10430 10432 10433 10436 10438 10439 10440 10443 10447 10450 10455 10458 10462 10466 10471 10473 10474 10476 10478 10480 10480 10478 10475 10470 10464 10456 10444 10430 10412
10370 10375 10380 10385 10390 10395 10399 10403 10405 10406 10407 10409 10412 10413 10414 10415 10417 10418 10420 10421 10421 10423 10426 10430 10434 10440 10444 10449 10455 10460 10464 10468 10471 10472 10473 10471 10469 10464 10458 10451 10442 10427 10409 10390
10361 10366 10372 10377 10381 10386 10391 10393 10396 10397 10398 10400 10401 10402 10403 10404 10405 10407 10407 10409 10411 10413 10416 10420 10425 10430 10435 10441 10448 10453 10458 10463 10465 10466 10465 10463 10458 10452 10445 10436 10428 10409 10391 10373
10352 10359 10365 10370 10373 10377 10382 10385 10387 10388 10390 10391 10392 10392 10394 10395 10396 10397 10399 10401 10404 10408 10411 10415 10419 10424 10431 10437 10443 10449 10454 10457 10459 10459 10457 10454 10448 10442 10434 10424 10413 10395 10375 10359
10347 10353 10358 10362 10366 10369 10372 10376 10379 10380 10382 10383 10384 10385 10386 10388 10390 10392 10394 10397 10401 10404 10408 10412 10416 10421 10428 10433 10440 10446 10449 10451 10452 10451 10449 10445 10440 10434 10425 10414 10396 10383 10362 10348